SWA1153 KHOU-KMAF

Flight info

Callsign SWA1153
Flight time N/A
Altitude 36000
Route RETYR8 JCT
Aircraft B737/M-SADE2E3GIJ4RWZ/LB1D1

Departure

Time N/A
Airport William P. Hobby Airport (KHOU)

Arrival

Time 2026-04-29 15:36
Airport Midland International Air and Space Port (KMAF)
Time Latitude Longitude Altitude Speed Heading
2026-04-29 15:04 31.28799 -100.41740 36069 ft 355 kts 290°
2026-04-29 15:05 31.30777 -100.46974 36069 ft 354 kts 290°
2026-04-29 15:05 31.32758 -100.52225 36070 ft 352 kts 290°
2026-04-29 15:06 31.34727 -100.57449 36073 ft 351 kts 290°
2026-04-29 15:06 31.36691 -100.62673 36085 ft 351 kts 290°
2026-04-29 15:07 31.38644 -100.67874 36052 ft 351 kts 290°
2026-04-29 15:07 31.40608 -100.73110 36031 ft 351 kts 290°
2026-04-29 15:08 31.42569 -100.78346 36018 ft 351 kts 290°
2026-04-29 15:08 31.44528 -100.83585 35999 ft 351 kts 290°
2026-04-29 15:09 31.46485 -100.88826 35974 ft 352 kts 290°
2026-04-29 15:09 31.48468 -100.94155 35981 ft 366 kts 290°
2026-04-29 15:10 31.50538 -100.99725 35987 ft 379 kts 290°
2026-04-29 15:10 31.52651 -101.05405 35973 ft 380 kts 290°
2026-04-29 15:11 31.54759 -101.11079 35885 ft 381 kts 290°
2026-04-29 15:11 31.55811 -101.13921 35241 ft 384 kts 290°
2026-04-29 15:11 31.56873 -101.16786 34461 ft 384 kts 290°
2026-04-29 15:11 31.57937 -101.19663 33626 ft 385 kts 290°
2026-04-29 15:12 31.59003 -101.22547 32730 ft 387 kts 289°
2026-04-29 15:12 31.60076 -101.25451 31785 ft 389 kts 289°
2026-04-29 15:12 31.61153 -101.28370 30891 ft 390 kts 289°
2026-04-29 15:12 31.62224 -101.31273 30223 ft 386 kts 289°
2026-04-29 15:13 31.63286 -101.34152 29489 ft 382 kts 289°
2026-04-29 15:13 31.64333 -101.36993 28767 ft 378 kts 289°
2026-04-29 15:13 31.65369 -101.39807 28101 ft 374 kts 289°
2026-04-29 15:13 31.66397 -101.42602 27436 ft 372 kts 289°
2026-04-29 15:14 31.67406 -101.45354 26796 ft 373 kts 289°
2026-04-29 15:14 31.68435 -101.48165 26296 ft 375 kts 289°
2026-04-29 15:14 31.69460 -101.50960 26148 ft 367 kts 289°
2026-04-29 15:14 31.70455 -101.53666 26019 ft 353 kts 289°
2026-04-29 15:15 31.71404 -101.56247 25979 ft 336 kts 288°
2026-04-29 15:15 31.72306 -101.58701 25967 ft 319 kts 288°
2026-04-29 15:15 31.73164 -101.61037 25835 ft 304 kts 288°
2026-04-29 15:15 31.73999 -101.63329 24838 ft 311 kts 288°
2026-04-29 15:16 31.74864 -101.65723 23645 ft 325 kts 288°
2026-04-29 15:16 31.75764 -101.68215 22315 ft 337 kts 288°
2026-04-29 15:16 31.76681 -101.70744 21050 ft 345 kts 289°
2026-04-29 15:16 31.77632 -101.73363 19879 ft 352 kts 289°
2026-04-29 15:17 31.78585 -101.75975 19231 ft 349 kts 289°
2026-04-29 15:17 31.79550 -101.78626 18575 ft 357 kts 289°
2026-04-29 15:17 31.80538 -101.81351 17846 ft 367 kts 289°
2026-04-29 15:17 31.81543 -101.84117 17119 ft 368 kts 290°
2026-04-29 15:18 31.82543 -101.86871 16452 ft 365 kts 290°
2026-04-29 15:18 31.83535 -101.89599 15776 ft 362 kts 290°
2026-04-29 15:18 31.84517 -101.92308 15117 ft 359 kts 290°
2026-04-29 15:18 31.85492 -101.94997 14467 ft 356 kts 290°
2026-04-29 15:19 31.86443 -101.97627 13817 ft 353 kts 290°
2026-04-29 15:19 31.87401 -102.00277 13093 ft 351 kts 290°
2026-04-29 15:19 31.88346 -102.02894 12654 ft 342 kts 290°
2026-04-29 15:19 31.89257 -102.05413 12372 ft 328 kts 290°
2026-04-29 15:20 31.90132 -102.07837 12153 ft 315 kts 290°
2026-04-29 15:20 31.90966 -102.10147 12034 ft 299 kts 290°
2026-04-29 15:20 31.91758 -102.12345 11932 ft 285 kts 290°
2026-04-29 15:20 31.92514 -102.14444 11842 ft 272 kts 289°
2026-04-29 15:21 31.93236 -102.16452 11676 ft 262 kts 289°
2026-04-29 15:21 31.93929 -102.18385 11368 ft 259 kts 289°
2026-04-29 15:21 31.94629 -102.20339 10964 ft 260 kts 289°
2026-04-29 15:21 31.95331 -102.22302 10568 ft 261 kts 289°
2026-04-29 15:22 31.96034 -102.24265 10205 ft 260 kts 289°
2026-04-29 15:22 31.96737 -102.26229 9841 ft 260 kts 289°
2026-04-29 15:22 31.97439 -102.28189 9437 ft 259 kts 289°
2026-04-29 15:22 31.98138 -102.30140 9062 ft 258 kts 289°
2026-04-29 15:23 31.98836 -102.32093 8687 ft 258 kts 288°
2026-04-29 15:23 31.99533 -102.34041 8322 ft 258 kts 288°
2026-04-29 15:23 32.00212 -102.35940 8159 ft 249 kts 288°
2026-04-29 15:23 32.00870 -102.37776 8065 ft 237 kts 288°
2026-04-29 15:24 32.01491 -102.39510 7943 ft 223 kts 288°
2026-04-29 15:24 32.02075 -102.41144 7754 ft 213 kts 287°
2026-04-29 15:24 32.02647 -102.42750 7382 ft 213 kts 287°
2026-04-29 15:24 32.03221 -102.44366 6967 ft 216 kts 287°
2026-04-29 15:25 32.03798 -102.46001 6585 ft 216 kts 285°
2026-04-29 15:25 32.04314 -102.47654 6367 ft 211 kts 284°
2026-04-29 15:25 32.04794 -102.49245 6102 ft 206 kts 285°
2026-04-29 15:25 32.05266 -102.50815 5857 ft 201 kts 286°
2026-04-29 15:26 32.05734 -102.52368 5567 ft 202 kts 287°
2026-04-29 15:26 32.06204 -102.53929 5344 ft 200 kts 289°
2026-04-29 15:26 32.06529 -102.55491 5047 ft 196 kts 266°
2026-04-29 15:26 32.06192 -102.56973 5027 ft 184 kts 242°
2026-04-29 15:27 32.05399 -102.58215 5007 ft 197 kts 218°
2026-04-29 15:27 32.04229 -102.58996 4957 ft 190 kts 189°
2026-04-29 15:27 32.02973 -102.59105 4936 ft 173 kts 163°
2026-04-29 15:27 32.01895 -102.58638 4943 ft 165 kts 143°
2026-04-29 15:28 32.01049 -102.57755 4974 ft 166 kts 124°
2026-04-29 15:28 32.00662 -102.56970 4985 ft 161 kts 109°
2026-04-29 15:28 32.00447 -102.55310 4977 ft 151 kts 85°
2026-04-29 15:28 32.00640 -102.54101 4973 ft 151 kts 71°
2026-04-29 15:29 32.01181 -102.53024 4982 ft 157 kts 49°
2026-04-29 15:29 32.02630 -102.50988 4965 ft 161 kts 53°
2026-04-29 15:30 32.03817 -102.48864 4948 ft 153 kts 93°
2026-04-29 15:30 32.03639 -102.47652 4985 ft 156 kts 99°
2026-04-29 15:30 32.03372 -102.46410 5008 ft 158 kts 102°
2026-04-29 15:30 32.03068 -102.45139 4962 ft 164 kts 103°
2026-04-29 15:31 32.02728 -102.43854 4924 ft 165 kts 104°
2026-04-29 15:31 32.02406 -102.42577 4905 ft 158 kts 104°
2026-04-29 15:31 32.02082 -102.41372 4910 ft 150 kts 108°
2026-04-29 15:31 32.01701 -102.40246 4918 ft 145 kts 111°
2026-04-29 15:32 32.01293 -102.39142 4914 ft 153 kts 112°
2026-04-29 15:32 32.00857 -102.37969 4936 ft 152 kts 116°
2026-04-29 15:32 32.00442 -102.36862 4907 ft 146 kts 116°
2026-04-29 15:32 32.00044 -102.35793 4900 ft 138 kts 116°
2026-04-29 15:33 31.99661 -102.34764 4899 ft 137 kts 115°
2026-04-29 15:33 31.99271 -102.33718 4917 ft 140 kts 117°
2026-04-29 15:33 31.98877 -102.32662 4890 ft 141 kts 116°
2026-04-29 15:33 31.98477 -102.31593 4721 ft 144 kts 114°
2026-04-29 15:34 31.98075 -102.30510 4537 ft 144 kts 113°
2026-04-29 15:34 31.97685 -102.29461 4337 ft 136 kts 113°
2026-04-29 15:34 31.97320 -102.28481 4162 ft 131 kts 111°
2026-04-29 15:34 31.96952 -102.27490 4011 ft 133 kts 111°
2026-04-29 15:35 31.96589 -102.26519 3818 ft 126 kts 109°
2026-04-29 15:35 31.96234 -102.25563 3648 ft 133 kts 109°
2026-04-29 15:35 31.95855 -102.24545 3495 ft 136 kts 110°
2026-04-29 15:35 31.95472 -102.23513 3287 ft 138 kts 110°
2026-04-29 15:36 31.95097 -102.22516 3093 ft 128 kts 109°
2026-04-29 15:36 31.94747 -102.21570 2912 ft 125 kts 110°
2026-04-29 15:36 31.94431 -102.20727 2869 ft 91 kts 115°
2026-04-29 15:36 31.94250 -102.20246 2872 ft 46 kts 113°
2026-04-29 15:37 31.94174 -102.20066 2874 ft 15 kts 125°
2026-04-29 15:37 31.94088 -102.19970 2871 ft 21 kts 150°
2026-04-29 15:37 31.93948 -102.19933 2869 ft 12 kts 176°
2026-04-29 15:37 31.93861 -102.19932 2866 ft 13 kts 196°
2026-04-29 15:38 31.93829 -102.20020 2867 ft 12 kts 268°
2026-04-29 15:38 31.93827 -102.20121 2868 ft 12 kts 269°
2026-04-29 15:38 31.93827 -102.20219 2869 ft 12 kts 270°
2026-04-29 15:38 31.93828 -102.20314 2868 ft 12 kts 271°
2026-04-29 15:39 31.93828 -102.20407 2869 ft 11 kts 264°
2026-04-29 15:39 31.93819 -102.20497 2868 ft 11 kts 258°
2026-04-29 15:39 31.93757 -102.20533 2868 ft 11 kts 178°
2026-04-29 15:39 31.93713 -102.20581 2868 ft 10 kts 268°
2026-04-29 15:40 31.93707 -102.20665 2868 ft 10 kts 265°
2026-04-29 15:40 31.93705 -102.20695 2868 ft 0 kts 265°